Starlink 30532

operational
NORAD ID: 58070 Int'l Des: 2023-158 Owner: SPXS Country: US Constellation: starlink
LEOCIRCULAR

About Starlink 30532

Description loading...

Live Position

Loading 3D Globe...

Upcoming Passes

Altitude History

Altitude vs Time

uPlot chart will show altitude changes over time

Two-Line Element Set

1 58070U 23158V 26048.27531864 .00000435 00000-0 47277-4 0 9998
2 58070 43.0016 140.9834 0001374 269.8070 90.2615 15.02535058130463
Epoch: Feb 17, 2026 • Age: 17 hours

Current Status

Altitude 571.1 km
Velocity 7.58 km/s
Sub-Earth Point -42.06°S, 112.22°W
Launch Date Oct 13, 2023
Age 2.3 years
Type internet

Technical Details

Classification Payload
Mass 730.00 kg
Dry Mass 700.00 kg
Total Mass 730.00 kg
Length 0.30 m
Diameter 4.10 m
Span 29.00 m
Shape Box + pan
Manufacturer SPXS
Bus Type Starlink V2M
Phase Status In Orbit
Owner/State SPXS/US

Large Constellations

Loading constellations...